STARLINK-11164, 60120

Orbit data source: Space-Track

STARLINK-11164, 60120 is a payload satellite owned by SpaceX/Seattle (US) in LEO that was launched on Mon, 24 Jun 2024 UTC via an FALCON 9 launch vehicle from the Air Force Western Test Range (AFWTR). Payload-class satellites include a variety of spacecraft equipped with specific instruments for various scientific and technological missions. These include communications satellites like Starlink; space stations such as the ISS; scientific satellites like the Hubble; Earth observation satellites from companies like Planet Labs, Umbra, and HawkEye 360; GPS; miniature CubeSats for education and research; and military/defense satellites.

Loading next visibility...
Identifier
60120, 2024-118H
Orbit
LEO
Country
Flag of USUS
Related business
Manufacturer
SpaceX/Seattle
Mission
Operational Commercial Communications
Bus & Motor
STARLINK V2MD, Unknown motor
Mass
960 kg wet, ~910 kg dry
Launch date (UTC)
2024-06-24 (1 year ago)
Launch vehicle
FALCON 9
Launch site
Air Force Western Test Range (AFWTR)
Object type
Payload
Rocket body
Debris
Shape & HBR
Box + 2 Pan, 18.1 m
Radar Cross Section
36.964 m², Large (>1 m²)

Expand to show TLE details & history
Last TLE update: 18 hours ago

TLE from 18 hours ago
0 STARLINK-11164
1 60120U 24118H   25310.86657462  .00000274  00000-0  71200-5 0  9998
2 60120  53.1598 106.6564 0001192  61.3114 298.8024 15.69707789 78703
Epoch: 2025-11-06T20:47Z
TLE epoch observation values (Epoch: 2025-11-06T20:47:52.047Z)
Latitude
0.00002°
Longitude
108.37081°
Altitude
360.261 km
Speed
7.695 km/s
True Right ascension
07h 06m 37s
True Declination
0° 00' 00"
Sunlit
Object was in full shadow at epoch
Visualization orbit readout
Latitude
Unknown
Longitude
Unknown
Altitude
Unknown
Speed
Unknown
Apparent Right ascension
Unknown
Apparent Declination
Unknown
Sunlit
N/A
Visualization observer readout
Local Sidereal Time
11:17:45
Azimuth
Unknown
Elevation
Unknown
Doppler factor
Unknown
Orbital elements
Apogee altitude
360.797 km
Perigee altitude
359.191 km
Semi-major axis
6,738.131 km
Eccentricity
0.00012
Inclination
53.1598°
RAAN
106.6564°
Arg. of periapsis
61.3114°
True anomaly
298.79043°
Mean anomaly
298.8024°
Eccentric anomaly
298.79641°
Mean motion
3.92405 °/min
Orbital period
91.74 mins
BSTAR
0.00000712
Loading maneuver chart data...
Computing Atmospheric mass density...
Loading historical data...
Loading historical data...
Loading historical data...
Loading historical data...
Loading historical data...
Loading historical data...
Loading historical data...

Documentation

Showing up to 5 results
|